User: anonymous   Login
Location: Unspecified
(0.0000°N, 0.0000°E)
Time: 22:28:56
(UTC+02:00)
Language:

Meteor 2-8 Rocket - Orbit

View from above orbital plane
View from above orbital plane
View from above satellite
View from above satellite

Ground track
Ground track

The orbit data is extracted from the following two-line orbital elements,

1 13114U 82025B   16271.98983456  .00000019  00000-0  35178-5 0  9995
2 13114  82.5398  51.3942 0014944 161.9512 337.5624 13.84655773744125
Epoch (UTC): 27 September 2016 23:45:21
Eccentricity: 0.0014944
inclination: 82.5398°
perigee height: 936 km
apogee height: 958 km
right ascension of ascending node: 51.3942°
argument of perigee: 161.9512°
revolutions per day: 13.84655773
mean anomaly at epoch: 337.5624°
orbit number at epoch: 74412

The dashed part of the orbit path shows where the satellite is in the earth's shadow,  

DLR